Content
SEND FEEDBACK

Daily
Averages
Monthly
Summary
United States of America

RALEIGH - LAKE RALEIGH, NORTH CAROLINA


Home > North America > United States > North Carolina
Elevation: 30 feet     Latitude: 35 45N     Longitude: 078 41W

WEATHER
 
SELECT A DAY
Number of Records: 195,897;   Date Range: 1/1/95 - 10/22/14
 
SHARE

PRINT THIS DATA

[ ← Previous Day ]
WEATHER ALMANAC - JANUARY 14, 2013
[ Next Day → ]
[ °C ]   °F
Weather ElementAverageHighLow
Temperature64.3 °F68 °F (1:51 pm)60.1 °F (3:51 am)
Dewpoint58.4 °F62.1 °F (6:51 pm)55 °F (3:51 am)
Humidity81.5 %94 % (11:55 pm)73 % (10:51 am)
Barometer30.12 in30.16 in (9:51 am)30.09 in (1:51 pm)
Wind Speed6.1 mph11.5 mph (11:51 am)
Wind Gust18.4 mph (11:51 am)
Weather ElementAverage
Visibility10 mi
Wind DirectionSSE (168.4 °)

Weather ElementTotal
Precipitation---
Heating Degree Days1 (Base 65)
Growing Degree Days14.1 (Base 50)
Averaged from 25 records on January 14, 2013
WEATHER CONDITIONS BREAKOUT
WIND DIRECTION BREAKOUT
WEATHER BY HOUR - JANUARY 14, 2013
[ °C ]   °F
Local TimeTemperatureDewpointHumidityBarometerVisibilityWind DirectionWind SpeedGust SpeedPrecipitationEventsConditions
1:51 AM62.1 °F57.0 °F84 %30.11 in10.0 miSSW (210°)9.2 mphMostly Cloudy
2:51 AM62.1 °F55.9 °F80 %30.11 in10.0 miSW (220°)8.1 mphMostly Cloudy
3:51 AM60.1 °F55.0 °F83 %30.11 in10.0 miSSW (210°)6.9 mphMostly Cloudy
4:51 AM61.0 °F55.9 °F83 %30.10 in10.0 miSSW (210°)6.9 mphMostly Cloudy
5:51 AM61.0 °F55.0 °F81 %30.10 in10.0 miSSW (210°)8.1 mphMostly Cloudy
6:51 AM62.1 °F55.0 °F78 %30.11 in10.0 miSW (230°)9.2 mphMostly Cloudy
7:51 AM61.0 °F55.0 °F81 %30.13 in10.0 miSSW (210°)8.1 mphMostly Cloudy
8:51 AM62.1 °F55.0 °F78 %30.14 in10.0 miSSW (210°)6.9 mphMostly Cloudy
9:51 AM63.0 °F55.9 °F78 %30.16 in10.0 miSW (230°)6.9 mphMostly Cloudy
10:51 AM66.0 °F57.0 °F73 %30.14 in10.0 miSW (230°)10.4 mphMostly Cloudy
11:51 AM66.0 °F57.9 °F75 %30.12 in10.0 miWSW (240°)11.5 mph18.4 mphOvercast
12:51 PM66.9 °F59.0 °F76 %30.10 in10.0 miSW (230°)8.1 mphOvercast
1:51 PM68.0 °F59.0 °F73 %30.09 in10.0 miWSW (240°)3.5 mphOvercast
2:22 PM68.0 °F60.8 °F78 %30.10 in10.0 miWSW (240°)4.6 mphOvercast
2:51 PM68.0 °F60.1 °F76 %30.10 in10.0 miWSW (240°)3.5 mph0.00 inOvercast
3:51 PM68.0 °F60.1 °F76 %30.11 in10.0 miSSW (200°)4.6 mphOvercast
4:51 PM66.9 °F61.0 °F81 %30.12 in10.0 miCalmOvercast
5:51 PM66.9 °F61.0 °F81 %30.13 in10.0 miCalmOvercast
6:51 PM64.0 °F62.1 °F93 %30.14 in10.0 miCalm0.00 inOvercast
7:51 PM64.0 °F62.1 °F93 %30.12 in10.0 miESE (110°)3.5 mphOvercast
8:51 PM64.9 °F61.0 °F87 %30.11 in10.0 miSE (140°)3.5 mphOvercast
9:51 PM66.0 °F61.0 °F84 %30.11 in10.0 miSouth (180°)5.8 mphMostly Cloudy
10:51 PM66.0 °F60.1 °F81 %30.11 in10.0 miSouth (190°)4.6 mphMostly Cloudy
11:51 PM63.0 °F60.1 °F90 %30.14 in10.0 miNorth (10°)9.2 mphOvercast
11:55 PM60.8 °F59.0 °F94 %30.15 in10.0 miNNE (20°)10.4 mphOvercast
Hourly data recorded from KRDU, located miles away from Raleigh - Lake Raleigh, North Carolina







STORIES FROM OUR PARTNERS